Kodiak, AK

6:27 AM AKST on November 26, 2014 (GMT -0900)
Bob Plyler on Selief Lane | Change Station
CLOSE
Current Station
Personal Weather Station
Location: Kodiak, AK
Elevation: 115 ft
Nearby Weather Stations

Elev 115 ft 57.80 °N, 152.39 °W | Updated 1 second ago

Scattered Clouds
Scattered Clouds
30.9 °F
Feels Like 31 °F
N
0.0
Wind Variable Wind from SE
Gusts 0.0 mph

Today
High -- | Low -- °F
--% Chance of Precip.
Yesterday
High -- | Low -- °F
Precip. -- in
9:19 AM 4:34 PM
Waxing Crescent, 20% visible
Pressure 30.32 in
Visibility 10.0 miles
Clouds Few 1800 ft
Scattered Clouds 2900 ft
Windchill 31 °F
Dew Point 29 °F
Humidity 92%
Rainfall 0.00 in
Snow Depth Not available.
UV 0 out of 12
Pollen Not available.
Air Quality Not available.
Flu Activity Not available.
METAR PADQ 261453Z 26005KT 10SM FEW018 SCT029 M03/M03 A3031 RMK AO2 SLP265 T10281033 56007

More Conditions Fewer Conditions

Pressure 30.32 in
Visibility 10.0 miles
Clouds Few 1800 ft
Scattered Clouds 2900 ft
Windchill 31 °F
Dew Point 29 °F
Humidity 92%
Rainfall 0.00 in
Snow Depth Not available.
UV 0 out of 12
Pollen Not available.
Air Quality Not available.
Flu Activity Not available.
METAR PADQ 261453Z 26005KT 10SM FEW018 SCT029 M03/M03 A3031 RMK AO2 SLP265 T10281033 56007

More Conditions Fewer Conditions

10-Day Weather Forecast

Almanac

Astronomy

Nov. 26, 2014 Rise Set
Actual Time
Civil Twilight
Nautical Twilight
Astronomical Twilight
Moon
Length of Visible Light
Length of Day
Tomorrow will be .
, % of the Moon is Illuminated

Today's Extremes

State Highs State Lows

Community

WunderPhotos

Upload Photos

1,773,771 photos uploaded!

WunderBlogs® & News

Nearby

Air Quality

  Air Quality AQ Index Pollutant
Not available.

Snow Depth

Station Depth Elevation

Earthquake Activity

City Distance Mag. Time & Date
Minimum magnitude displayed is 2.5.

Coastal Water Temperatures

Place Temperature

Nearby Weather Stations